TimeCDT,TemperatureF,Dew PointF,Humidity,Sea Level PressureIn,VisibilityMPH,Wind Direction,Wind SpeedMPH,Gust SpeedMPH,PrecipitationIn,Events,Conditions,WindDirDegrees,DateUTC
12:07 AM,62.1,59.0,90,29.66,10.0,NNW,12.7,23.0,N/A,,Overcast,330,2013-06-02 05:07:00
12:21 AM,60.1,55.9,86,29.67,10.0,North,18.4,28.8,N/A,,Overcast,360,2013-06-02 05:21:00
12:53 AM,57.9,53.1,84,29.69,10.0,North,16.1,24.2,N/A,,Overcast,360,2013-06-02 05:53:00
1:01 AM,57.0,52.0,83,29.70,10.0,North,17.3,-,N/A,,Overcast,360,2013-06-02 06:01:00
1:10 AM,55.9,52.0,87,29.70,10.0,North,18.4,27.6,0.00,Rain,Light Rain,360,2013-06-02 06:10:00
1:26 AM,55.0,52.0,89,29.71,10.0,NNW,18.4,23.0,0.00,,Overcast,340,2013-06-02 06:26:00
1:53 AM,53.1,48.9,86,29.73,10.0,NNW,15.0,25.3,0.00,,Overcast,340,2013-06-02 06:53:00
2:12 AM,52.0,48.0,86,29.74,10.0,North,16.1,29.9,N/A,,Overcast,350,2013-06-02 07:12:00
2:53 AM,50.0,46.0,86,29.75,10.0,North,13.8,-,N/A,,Overcast,350,2013-06-02 07:53:00
3:10 AM,50.0,45.0,83,29.76,10.0,North,17.3,-,N/A,,Overcast,360,2013-06-02 08:10:00
3:33 AM,48.9,44.1,83,29.78,10.0,North,11.5,20.7,N/A,,Overcast,350,2013-06-02 08:33:00
3:53 AM,48.0,44.1,86,29.79,10.0,NNW,8.1,-,N/A,,Overcast,340,2013-06-02 08:53:00
4:13 AM,48.0,42.1,80,29.80,10.0,NNW,13.8,-,N/A,,Overcast,340,2013-06-02 09:13:00
4:53 AM,46.9,41.0,80,29.82,10.0,NW,12.7,-,N/A,,Overcast,320,2013-06-02 09:53:00
5:35 AM,46.9,39.9,77,29.83,10.0,NNW,13.8,21.9,N/A,,Overcast,330,2013-06-02 10:35:00
5:53 AM,46.9,39.9,77,29.84,10.0,NW,10.4,-,N/A,,Overcast,320,2013-06-02 10:53:00
6:48 AM,46.4,39.2,76,29.87,10.0,NW,13.8,-,N/A,,Overcast,320,2013-06-02 11:48:00
6:53 AM,46.9,39.0,74,29.88,10.0,NW,11.5,-,N/A,,Overcast,320,2013-06-02 11:53:00
7:53 AM,46.9,39.0,74,29.91,10.0,NW,16.1,-,N/A,,Overcast,320,2013-06-02 12:53:00
8:53 AM,48.9,39.0,69,29.93,10.0,NNW,16.1,24.2,N/A,,Overcast,330,2013-06-02 13:53:00
9:53 AM,51.1,39.9,66,29.95,10.0,NNW,13.8,-,N/A,,Overcast,340,2013-06-02 14:53:00
10:53 AM,51.1,41.0,68,29.97,10.0,NNW,13.8,-,N/A,,Overcast,330,2013-06-02 15:53:00
11:53 AM,54.0,42.1,64,29.97,10.0,NNW,13.8,-,N/A,,Overcast,330,2013-06-02 16:53:00
12:53 PM,57.0,43.0,59,29.98,10.0,North,10.4,19.6,N/A,,Mostly Cloudy,350,2013-06-02 17:53:00
1:53 PM,57.9,44.1,60,29.99,10.0,NW,6.9,-,N/A,,Mostly Cloudy,320,2013-06-02 18:53:00
2:53 PM,60.1,42.1,51,29.99,10.0,NW,9.2,-,N/A,,Mostly Cloudy,320,2013-06-02 19:53:00
3:53 PM,62.1,42.1,48,29.98,10.0,North,5.8,-,N/A,,Partly Cloudy,350,2013-06-02 20:53:00
4:53 PM,62.1,44.1,52,29.98,10.0,West,9.2,-,N/A,,Scattered Clouds,280,2013-06-02 21:53:00
5:53 PM,63.0,42.1,46,29.97,10.0,WNW,8.1,-,N/A,,Scattered Clouds,290,2013-06-02 22:53:00
6:53 PM,61.0,41.0,48,29.99,10.0,NW,8.1,-,N/A,,Scattered Clouds,310,2013-06-02 23:53:00
7:53 PM,61.0,41.0,48,29.99,10.0,NNW,3.5,-,N/A,,Scattered Clouds,330,2013-06-03 00:53:00
8:53 PM,52.0,45.0,77,30.01,10.0,ESE,6.9,-,N/A,,Partly Cloudy,110,2013-06-03 01:53:00
9:53 PM,48.9,43.0,80,30.03,10.0,SE,6.9,-,N/A,,Clear,130,2013-06-03 02:53:00
10:53 PM,46.9,42.1,83,30.04,10.0,SSE,5.8,-,N/A,,Clear,150,2013-06-03 03:53:00
11:53 PM,45.0,41.0,86,30.05,10.0,ESE,5.8,-,N/A,,Clear,120,2013-06-03 04:53:00